Meteo pe oră la Bolshoe Bragino

Astăzi, 8 Mai, Sâmbătă

Timp Temperatura Precipitaţii Vânt Presiune Umiditate
00:00 +8°C° 0 mm 1 m/s 753 mmHg 63%
01:00 +7°C° 0 mm 2 m/s 753 mmHg 65%
02:00 +7°C° 0 mm 2 m/s 754 mmHg 67%
03:00 +6°C° 0 mm 2 m/s 754 mmHg 69%
04:00 +7°C° 0 mm 3 m/s 754 mmHg 67%
05:00 +7°C° 0 mm 3 m/s 754 mmHg 66%
06:00 +6°C° 0 mm 4 m/s 754 mmHg 64%
07:00 +8°C° 0 mm 4 m/s 754 mmHg 56%
08:00 +9°C° 0 mm 5 m/s 754 mmHg 48%
09:00 +11°C° 0 mm 6 m/s 754 mmHg 41%
10:00 +13°C° 0 mm 6 m/s 754 mmHg 37%
11:00 +13°C° 0 mm 6 m/s 753 mmHg 34%
12:00 +14°C° 0 mm 6 m/s 753 mmHg 30%
13:00 +15°C° 0 mm 6 m/s 753 mmHg 30%
14:00 +15°C° 0 mm 6 m/s 753 mmHg 30%
15:00 +16°C° 0 mm 6 m/s 752 mmHg 30%
16:00 +15°C° 0 mm 5 m/s 753 mmHg 35%
17:00 +14°C° 0 mm 5 m/s 753 mmHg 40%
18:00 +13°C° 0 mm 4 m/s 753 mmHg 45%
19:00 +11°C° 0 mm 4 m/s 754 mmHg 52%
20:00 +9°C° 0 mm 3 m/s 755 mmHg 59%
21:00 +7°C° 0 mm 2 m/s 755 mmHg 66%
22:00 +6°C° 0 mm 2 m/s 756 mmHg 68%
23:00 +5°C° 0 mm 2 m/s 756 mmHg 70%

Mâine, 9 Mai, Duminică

Timp Temperatura Precipitaţii Vânt Presiune Umiditate
00:00 +4°C° 0 mm 2 m/s 756 mmHg 73%
01:00 +3°C° 0 mm 2 m/s 756 mmHg 76%
02:00 +3°C° 0 mm 2 m/s 757 mmHg 79%
03:00 +2°C° 0 mm 2 m/s 757 mmHg 81%
04:00 +2°C° 0 mm 2 m/s 757 mmHg 80%
05:00 +3°C° 0 mm 2 m/s 757 mmHg 80%
06:00 +3°C° 0 mm 2 m/s 758 mmHg 79%
07:00 +4°C° 0 mm 2 m/s 758 mmHg 70%
08:00 +5°C° 0 mm 3 m/s 758 mmHg 62%
09:00 +8°C° 0 mm 3 m/s 758 mmHg 54%
10:00 +9°C° 0 mm 3 m/s 758 mmHg 49%
11:00 +10°C° 0 mm 3 m/s 758 mmHg 44%
12:00 +11°C° 0 mm 3 m/s 759 mmHg 39%
13:00 +11°C° 0 mm 3 m/s 759 mmHg 38%
14:00 +12°C° 0 mm 3 m/s 759 mmHg 36%
15:00 +12°C° 0 mm 3 m/s 759 mmHg 35%
16:00 +12°C° 0 mm 3 m/s 759 mmHg 37%
17:00 +12°C° 0 mm 3 m/s 759 mmHg 39%
18:00 +12°C° 0 mm 3 m/s 759 mmHg 41%
19:00 +10°C° 0 mm 3 m/s 760 mmHg 49%
20:00 +8°C° 0 mm 3 m/s 760 mmHg 58%
21:00 +5°C° 0 mm 3 m/s 761 mmHg 66%
22:00 +5°C° 0 mm 2 m/s 761 mmHg 72%
23:00 +4°C° 0 mm 2 m/s 761 mmHg 78%

Poimâine, 10 Mai, Luni

Timp Temperatura Precipitaţii Vânt Presiune Umiditate
00:00 +3°C° 0 mm 2 m/s 761 mmHg 84%
01:00 +3°C° 0 mm 2 m/s 761 mmHg 86%
02:00 +2°C° 0 mm 2 m/s 761 mmHg 88%
03:00 +2°C° 0 mm 2 m/s 761 mmHg 89%
04:00 +3°C° 0 mm 2 m/s 762 mmHg 85%
05:00 +3°C° 0 mm 2 m/s 762 mmHg 80%
06:00 +4°C° 0 mm 2 m/s 762 mmHg 76%
07:00 +6°C° 0 mm 2 m/s 762 mmHg 67%
08:00 +8°C° 0 mm 2 m/s 762 mmHg 58%
09:00 +10°C° 0 mm 3 m/s 762 mmHg 49%
10:00 +11°C° 0 mm 3 m/s 761 mmHg 47%
11:00 +11°C° 0 mm 3 m/s 761 mmHg 46%
12:00 +12°C° 0 mm 3 m/s 761 mmHg 44%
13:00 +13°C° 0 mm 4 m/s 760 mmHg 44%
14:00 +13°C° 0 mm 4 m/s 760 mmHg 44%
15:00 +13°C° 0 mm 4 m/s 760 mmHg 44%
16:00 +14°C° 0 mm 4 m/s 760 mmHg 44%
17:00 +14°C° 0 mm 3 m/s 759 mmHg 44%
18:00 +14°C° 0 mm 3 m/s 759 mmHg 44%
19:00 +12°C° 0 mm 3 m/s 759 mmHg 51%
20:00 +11°C° 0 mm 3 m/s 759 mmHg 59%
21:00 +9°C° 0 mm 3 m/s 759 mmHg 66%
22:00 +8°C° 0 mm 2 m/s 759 mmHg 71%
23:00 +7°C° 0 mm 2 m/s 759 mmHg 76%

11 Mai, Marţi

Timp Temperatura Precipitaţii Vânt Presiune Umiditate
00:00 +6°C° 0 mm 2 m/s 759 mmHg 80%
01:00 +6°C° 0 mm 2 m/s 758 mmHg 82%
02:00 +5°C° 0 mm 2 m/s 758 mmHg 84%
03:00 +5°C° 0 mm 2 m/s 758 mmHg 86%
04:00 +5°C° 0 mm 2 m/s 758 mmHg 84%
05:00 +6°C° 0 mm 2 m/s 758 mmHg 82%
06:00 +6°C° 0 mm 2 m/s 758 mmHg 80%
07:00 +8°C° 0 mm 3 m/s 758 mmHg 70%
08:00 +10°C° 0 mm 3 m/s 758 mmHg 61%
09:00 +12°C° 0 mm 4 m/s 757 mmHg 52%
10:00 +13°C° 0 mm 4 m/s 757 mmHg 47%
11:00 +15°C° 0 mm 4 m/s 757 mmHg 42%
12:00 +17°C° 0 mm 4 m/s 757 mmHg 37%
13:00 +17°C° 0 mm 4 m/s 756 mmHg 37%
14:00 +18°C° 0 mm 4 m/s 756 mmHg 36%
15:00 +17°C° 0 mm 5 m/s 756 mmHg 36%
16:00 +17°C° 0 mm 4 m/s 756 mmHg 38%
17:00 +17°C° 0 mm 4 m/s 756 mmHg 40%
18:00 +17°C° 0 mm 4 m/s 756 mmHg 41%
19:00 +14°C° 0 mm 4 m/s 756 mmHg 46%
20:00 +13°C° 0 mm 4 m/s 757 mmHg 50%
21:00 +11°C° 0 mm 4 m/s 757 mmHg 55%
22:00 +10°C° 0 mm 3 m/s 757 mmHg 58%
23:00 +10°C° 0 mm 3 m/s 757 mmHg 61%

12 Mai, Miercuri

Timp Temperatura Precipitaţii Vânt Presiune Umiditate
00:00 +9°C° 0 mm 3 m/s 757 mmHg 63%
01:00 +9°C° 0 mm 3 m/s 757 mmHg 66%
02:00 +8°C° 0 mm 3 m/s 757 mmHg 69%
03:00 +8°C° 0 mm 2 m/s 757 mmHg 72%
04:00 +8°C° 0 mm 2 m/s 757 mmHg 73%
05:00 +8°C° 0 mm 2 m/s 757 mmHg 73%
06:00 +9°C° 0 mm 2 m/s 757 mmHg 74%
07:00 +9°C° 0 mm 3 m/s 757 mmHg 69%
08:00 +10°C° 0 mm 3 m/s 757 mmHg 64%
09:00 +11°C° 0 mm 3 m/s 758 mmHg 60%
10:00 +12°C° 0 mm 3 m/s 758 mmHg 54%
11:00 +13°C° 0 mm 3 m/s 758 mmHg 48%
12:00 +14°C° 0 mm 3 m/s 757 mmHg 42%
13:00 +16°C° 0 mm 3 m/s 757 mmHg 39%
14:00 +16°C° 0 mm 3 m/s 757 mmHg 35%
15:00 +17°C° 0 mm 3 m/s 757 mmHg 32%
16:00 +16°C° 0 mm 3 m/s 757 mmHg 33%
17:00 +16°C° 0 mm 2 m/s 757 mmHg 35%
18:00 +16°C° 0 mm 2 m/s 757 mmHg 36%
19:00 +14°C° 0 mm 2 m/s 758 mmHg 42%
20:00 +12°C° 0 mm 2 m/s 758 mmHg 48%
21:00 +11°C° 0 mm 1 m/s 758 mmHg 54%
22:00 +10°C° 0 mm 1 m/s 759 mmHg 56%
23:00 +8°C° 0 mm 2 m/s 759 mmHg 59%

13 Mai, Joi

Timp Temperatura Precipitaţii Vânt Presiune Umiditate
00:00 +7°C° 0 mm 2 m/s 759 mmHg 61%
01:00 +7°C° 0 mm 2 m/s 759 mmHg 62%
02:00 +6°C° 0 mm 2 m/s 759 mmHg 63%
03:00 +5°C° 0 mm 2 m/s 759 mmHg 64%
04:00 +7°C° 0 mm 1 m/s 759 mmHg 62%
05:00 +7°C° 0 mm 1 m/s 760 mmHg 60%
06:00 +8°C° 0 mm 1 m/s 760 mmHg 58%
07:00 +10°C° 0 mm 1 m/s 760 mmHg 50%
08:00 +12°C° 0 mm 2 m/s 760 mmHg 42%
09:00 +14°C° 0 mm 2 m/s 760 mmHg 34%
10:00 +15°C° 0 mm 2 m/s 760 mmHg 31%
11:00 +16°C° 0 mm 2 m/s 759 mmHg 29%
12:00 +17°C° 0 mm 2 m/s 759 mmHg 27%
13:00 +18°C° 0 mm 2 m/s 759 mmHg 26%
14:00 +18°C° 0 mm 2 m/s 759 mmHg 26%
15:00 +19°C° 0 mm 2 m/s 758 mmHg 25%
16:00 +18°C° 0 mm 2 m/s 758 mmHg 26%
17:00 +19°C° 0 mm 1 m/s 758 mmHg 27%
18:00 +19°C° 0 mm 1 m/s 758 mmHg 28%
19:00 +16°C° 0 mm 1 m/s 759 mmHg 34%
20:00 +14°C° 0 mm 1 m/s 759 mmHg 41%
21:00 +12°C° 0 mm 1 m/s 759 mmHg 47%
22:00 +11°C° 0 mm 1 m/s 759 mmHg 49%
23:00 +10°C° 0 mm 1 m/s 759 mmHg 51%
Arată mai mult

Formular de consimțământ

Meteoprog și furnizorii noștri de servicii pot stoca și accesa date personale, precum cookies, identificatori de dispozitiv sau alte tehnologii similare pe dispozitivul dumneavoastră și procesa astfel de date pentru a personaliza conținutul și reclamele, dar și pentru a oferi caracteristici de social media și pentru a analiza traficul.

  • Stocarea și/sau accesarea informațiilor pe dispozitivul dumneavoastră

    Cookies, identificatori de dispozitiv sau alte informații pot fi stocate sau accesate pe dispozitiv în scopurile indicate mai sus.

  • Reclame și conținut personalizat, evaluarea reclamelor și a conținutului, informații despre audiențe și dezvoltarea produselor

    Reclamele și conținutul pot fi personalizate pe baza unui profil. Pot fi adăugate date suplimentare pentru a personaliza mai bine reclamele și conținutul. Performanța reclamelor și conținutului poate fi măsurată. Pot fi obținute informații despre utilizatorii care au văzut reclamele și conținutul. Aceste date pot fi utilizate pentru a dezvolta sau îmbunătăți experiența utilizatorilor, sistemele și software-ul.

Dând clic pe ‘Sunt de acord’, permiteți utilizarea cookie-urilor menționate, a identificatorilor de dispozitiv, balizelor web sau altor tehnologii similare. Setările pot fi modificate din browser-ul dispozitivului dumneavoastră.

În anumite scopuri, interesele legitime pot prima asupra consimțământului. Puteți citi mai multe informații în acest sens în Politica privind Confidențialitatea Datelor și Cookie.